| time (UTC) | temp C | wind direction | speed KPH | gust KPH | rain 1hr cm | rain 24hr cm | rain mn cm | humidity % | barometer mb |
| 20260503221535 | 20 | 288 | 1.6 | 6.4 | 0.00 | 0.00 | 0.00 | 19 | 1002.3 |
| 20260503220027 | 21 | 289 | 3.2 | 14.5 | 0.00 | 0.00 | 0.00 | 18 | 1002.4 |
| 20260503214526 | 22 | 234 | 0.0 | 1.6 | 0.00 | 0.00 | 0.00 | 17 | 1002.5 |
| 20260503213025 | 22 | 245 | 3.2 | 17.7 | 0.00 | 0.00 | 0.00 | 16 | 1002.9 |
| 20260503211523 | 22 | 198 | 1.6 | 9.7 | 0.00 | 0.00 | 0.00 | 18 | 1003.1 |
| 20260503210020 | 22 | 257 | 1.6 | 19.3 | 0.00 | 0.00 | 0.00 | 18 | 1003.2 |
| 20260503204523 | 22 | 311 | 1.6 | 16.1 | 0.00 | 0.00 | 0.00 | 16 | 1003.3 |
| 20260503203020 | 22 | 274 | 0.0 | 4.8 | 0.00 | 0.00 | 0.00 | 16 | 1003.5 |
| 20260503201517 | 22 | 292 | 0.0 | 8.0 | 0.00 | 0.00 | 0.00 | 15 | 1003.6 |
| 20260503200016 | 22 | 315 | 3.2 | 16.1 | 0.00 | 0.00 | 0.00 | 17 | 1003.8 |
| 20260503194514 | 22 | 283 | 3.2 | 14.5 | 0.00 | 0.00 | 0.00 | 15 | 1003.9 |
| 20260503193013 | 22 | 315 | 1.6 | 12.9 | 0.00 | 0.00 | 0.00 | 16 | 1004.2 |
| 20260503191511 | 21 | 360 | 1.6 | 14.5 | 0.00 | 0.00 | 0.00 | 15 | 1004.5 |
| 20260503190012 | 22 | 360 | 1.6 | 12.9 | 0.00 | 0.00 | 0.00 | 16 | 1004.7 |
| 20260503184513 | 22 | 300 | 1.6 | 12.9 | 0.00 | 0.00 | 0.00 | 15 | 1005.1 |
| 20260503183004 | 21 | 290 | 1.6 | 14.5 | 0.00 | 0.00 | 0.00 | 16 | 1005.4 |
| 20260503181502 | 22 | 360 | 0.0 | 14.5 | 0.00 | 0.00 | 0.00 | 15 | 1005.9 |
| 20260503180105 | 22 | 301 | 0.0 | 9.7 | 0.00 | 0.00 | 0.00 | 16 | 1006.3 |
| 20260503174559 | 21 | 290 | 1.6 | 8.0 | 0.00 | 0.00 | 0.00 | 16 | 1006.7 |
| 20260503173052 | 20 | 248 | 1.6 | 8.0 | 0.00 | 0.00 | 0.00 | 18 | 1006.9 |
| 20260503171550 | 20 | 263 | 1.6 | 14.5 | 0.00 | 0.00 | 0.00 | 18 | 1007.2 |
| 20260503081530 | 12 | 240 | 0.0 | 11.3 | 0.00 | 0.00 | 0.00 | 31 | 1009.3 |
| 20260503071521 | 12 | 265 | 0.0 | 4.8 | 0.00 | 0.00 | 0.00 | 28 | 1010.0 |
| 20260503054510 | 11 | 218 | 0.0 | 4.8 | 0.00 | 0.00 | 0.00 | 25 | 1010.3 |
| 20260503053010 | 11 | 253 | 0.0 | 3.2 | 0.00 | 0.00 | 0.00 | 26 | 1010.3 |
| 20260503051508 | 11 | 253 | 0.0 | 1.6 | 0.00 | 0.00 | 0.00 | 25 | 1010.3 |
| 20260503050020 | 12 | 257 | 0.0 | 3.2 | 0.00 | 0.00 | 0.00 | 25 | 1010.4 |
| 20260503044507 | 12 | 258 | 1.6 | 6.4 | 0.00 | 0.00 | 0.00 | 25 | 1010.6 |
| 20260503043008 | 12 | 240 | 0.0 | 3.2 | 0.00 | 0.00 | 0.00 | 23 | 1010.6 |
| 20260503041506 | 12 | 253 | 0.0 | 3.2 | 0.00 | 0.00 | 0.00 | 21 | 1010.5 |
| 20260503040005 | 12 | 218 | 0.0 | 0.0 | 0.00 | 0.00 | 0.00 | 21 | 1010.6 |
| 20260503034505 | 12 | 240 | 0.0 | 1.6 | 0.00 | 0.00 | 0.00 | 20 | 1010.5 |
| 20260503033006 | 12 | 237 | 0.0 | 1.6 | 0.00 | 0.00 | 0.00 | 20 | 1010.6 |
| 20260503031504 | 12 | 221 | 0.0 | 1.6 | 0.00 | 0.00 | 0.00 | 20 | 1010.4 |
| 20260503030003 | 13 | 198 | 0.0 | 6.4 | 0.00 | 0.00 | 0.00 | 18 | 1010.4 |
| 20260503024503 | 15 | 360 | 0.0 | 0.0 | 0.00 | 0.00 | 0.00 | 18 | 1010.4 |
| 20260503023002 | 16 | 360 | 0.0 | 0.0 | 0.00 | 0.00 | 0.00 | 13 | 1010.3 |
| 20260503021506 | 17 | 360 | 0.0 | 0.0 | 0.00 | 0.00 | 0.00 | 12 | 1010.1 |
| 20260503020002 | 17 | 360 | 0.0 | 4.8 | 0.00 | 0.00 | 0.00 | 12 | 1010.0 |
| 20260503014501 | 18 | 360 | 0.0 | 4.8 | 0.00 | 0.00 | 0.00 | 12 | 1010.0 |
| 20260503013101 | 18 | 360 | 0.0 | 6.4 | 0.00 | 0.00 | 0.00 | 12 | 1009.9 |
| 20260503011610 | 18 | 360 | 1.6 | 8.0 | 0.00 | 0.00 | 0.00 | 12 | 1009.9 |
| 20260503010059 | 19 | 360 | 0.0 | 8.0 | 0.00 | 0.00 | 0.00 | 11 | 1009.9 |
| 20260503004559 | 19 | 360 | 1.6 | 9.7 | 0.00 | 0.00 | 0.00 | 10 | 1009.9 |
| 20260503003057 | 20 | 360 | 0.0 | 9.7 | 0.00 | 0.00 | 0.00 | 11 | 1009.9 |
| 20260503001606 | 19 | 360 | 1.6 | 12.9 | 0.00 | 0.00 | 0.00 | 11 | 1010.0 |
| 20260503000100 | 19 | 360 | 1.6 | 8.0 | 0.00 | 0.00 | 0.00 | 11 | 1010.1 |
| 20260502234554 | 20 | 360 | 1.6 | 9.7 | 0.00 | 0.00 | 0.00 | 15 | 1010.1 |
| 20260502233053 | 20 | 122 | 0.0 | 12.9 | 0.00 | 0.00 | 0.00 | 11 | 1010.3 |
| 20260502231552 | 20 | 360 | 1.6 | 19.3 | 0.00 | 0.00 | 0.00 | 13 | 1010.4 |
| 20260502230049 | 20 | 53 | 1.6 | 11.3 | 0.00 | 0.00 | 0.00 | 11 | 1010.4 |
| 20260502224548 | 19 | 115 | 3.2 | 12.9 | 0.00 | 0.00 | 0.00 | 12 | 1010.6 |
| 20260502223047 | 20 | 360 | 4.8 | 16.1 | 0.00 | 0.00 | 0.00 | 16 | 1010.8 |